Home > Weather > Beirut > Past weeks

Flag for Lebanon Past Weather in Beirut, Lebanon — Yesterday and Last 2 Weeks

Now
82 °F

Sunny.


Feels Like: 87 °F
Forecast: 79 / 83 °F
Wind: 13 mph from Southwest

Location: Beirut Airport

Current Time: Jun 30, 2016 at 9:49:36 AM

Latest Report: Jun 30, 2016 at 9:00 AM


Visibility: 4 mi

Pressure: 29.89 "Hg

Humidity: 70%

Dew Point: 72 °F

Location of BeirutLocation

Past Weather in Beirut — Graph

°F

Beirut Temperature Yesterday

Maximum temperature yesterday: 86 °F (at 1:00 PM)
Minimum temperature yesterday: 79 °F (at 12:00 AM)
Average temperature yesterday: 82 °F

High & Low Weather Summary for the Past Weeks

 TemperatureHumidityPressure
High86 °F (Jun 18, 12:00 PM)94% (Jun 20, 3:00 AM)29.89 "Hg (Jun 20, 3:00 AM)
Low72 °F (Jun 17, 5:00 AM)40% (Jun 18, 8:00 PM)29.71 "Hg (Jun 24, 6:00 AM)
Average80 °F75%29.80 "Hg
* Reported Jun 15 8:00 AM — Jun 30 8:00 AM, Beirut, Weather by CustomWeather, © 2016

Note: Actual official high and low records may vary slightly from our data, if they occured in-between our weather recording intervals... More about our weather records

Advertising

Beirut Weather History for the Previous 24 Hours

Scroll right to see more
 ConditionsComfort  
Time TempWeatherWind HumidityBarometerVisibility
8:00 AM
Thu, Jun 30
81 °FSunny.10 mph74%29.86 "Hg4 mi
7:00 AM77 °FPassing clouds.7 mph74%29.86 "Hg5 mi
6:00 AM77 °FPassing clouds.7 mph69%29.86 "Hg5 mi
5:00 AM77 °FClear.5 mph65%29.83 "Hg5 mi
4:00 AM77 °FClear.2 mph69%29.83 "Hg5 mi
3:00 AM79 °FClear.2 mph70%29.83 "Hg5 mi
2:00 AM79 °FClear.3 mph74%29.83 "Hg5 mi
1:00 AM79 °FClear.7 mph79%29.86 "Hg5 mi
12:00 AM79 °FFog.7 mph84%29.86 "Hg3 mi
11:00 PM
Wed, Jun 29
79 °FFog.8 mph84%29.86 "Hg3 mi
10:00 PM81 °FPassing clouds.9 mph79%29.83 "HgN/A
9:00 PM81 °FPassing clouds.9 mph79%29.83 "HgN/A
8:00 PM81 °FPassing clouds.8 mph79%29.83 "HgN/A
7:00 PM82 °FPassing clouds.10 mph74%29.80 "HgN/A
6:00 PM82 °FPassing clouds.10 mph70%29.80 "HgN/A
5:00 PM84 °FPassing clouds.12 mph70%29.80 "Hg5 mi
4:00 PM84 °FPassing clouds.13 mph70%29.80 "Hg5 mi
3:00 PM86 °FPassing clouds.12 mph66%29.80 "Hg5 mi
2:00 PM84 °FPassing clouds.13 mph70%29.80 "Hg5 mi
1:00 PM86 °FPassing clouds.13 mph70%29.80 "Hg5 mi
12:00 PM84 °FSunny.15 mph70%29.80 "Hg5 mi
11:00 AM84 °FSunny.14 mph70%29.80 "Hg5 mi
10:00 AM84 °FSunny.13 mph66%29.80 "Hg5 mi
9:00 AM82 °FSunny.12 mph66%29.80 "Hg5 mi
Weather by CustomWeather, © 2016

See weather overviewHow to use our weather pages